Location: ?????
(31.8092°N, 35.2590°E)
Time: 13:35:43
(UTC+00:00)

Cosmos 1844 Rocket - Pass Details

Date: 20 June 2021
Orbit: 823 x 846 km, 71.0° (Epoch: 31 July)

Event Time Altitude Azimuth Distance (km) Brightness Sun altitude
Rises 19:32:15 0° 332° (NNW) 3,407 7.2 -26.8°
Reaches altitude 10° 19:34:47 10° 326° (NW) 2,470 6.1 -27.1°
Maximum altitude 19:40:09 45° 255° (WSW) 1,133 3.4 -27.7°
Enters shadow 19:40:47 44° 236° (SW) 1,161 3.3 -27.8°
